Powrót do katalogu

SL-16 DEB

AktywnyLEO
NORAD 23406·DEBRIS·🇷🇺 Russia

Wystrzelony Nov 24, 1994 z Baikonur Cosmodrome

Loading…

Następne Przeloty (najbliższe 24 godziny)

TLE

ŚwieżeSource: Space-Track

Epoka: Sep 14, 2026, 09:08 UTC

1 23406U 94077C   26257.38089806  .00000032  00000-0  68307-4 0  9999
2 23406  71.0286 236.6642 0199793 151.7485   0.4132 13.73476442593377

Śledź SL-16 DEB w czasie rzeczywistym z AllMySat

Download on the App Store